Theta_e
307 307 307 307 307 307 306 308 307 307 308 307 309 309 310 309 307 304 307 304 304 304 306 314 321 326 326 325 325 312 316 322 326 327 326 320 325 325 326 333 333 332 328 327 327
307 307 306 306 306 306 306 306 308 307 307 308 309 309 310 308 306 307 303 305 307 304 311 315 322 325 327 327 327 321 316 319 321 322 323 318 318 320 330 333 334 334 330 324 331
308 308 306 306 305 305 305 307 308 307 307 307 308 309 309 308 301 299 312 314 310 310 311 315 316 320 327 327 328 328 320 316 317 318 317 318 318 318 328 332 331 334 327 326 332
307 307 306 306 306 306 306 307 307 306 307 307 308 309 309 307 301 304 309 307 309 312 310 314 314 319 324 328 326 331 323 315 317 323 322 321 317 318 320 329 324 330 325 326 332
306 306 307 307 307 307 307 307 306 306 307 307 308 309 308 306 304 304 304 301 302 305 311 314 313 313 320 323 325 329 327 320 318 324 324 322 323 320 319 317 329 330 326 325 330
307 307 307 308 308 308 308 308 308 308 308 308 308 307 307 305 305 303 302 303 304 306 309 313 312 312 315 315 322 323 327 327 323 323 324 325 324 320 319 325 331 332 327 325 325
307 306 305 306 307 308 308 308 308 308 308 308 308 308 307 304 304 304 302 305 306 305 306 308 313 312 313 311 314 317 327 328 327 326 325 321 325 321 319 331 333 332 331 326 324
304 305 306 306 307 307 307 307 307 307 307 308 308 308 305 304 303 304 304 304 304 304 305 307 308 311 312 310 312 317 326 330 328 327 326 324 329 319 317 329 331 331 330 330 328
304 305 306 307 307 307 307 306 305 307 307 307 307 306 306 305 304 305 304 304 304 304 303 305 308 310 312 311 311 316 324 328 325 327 327 326 328 324 321 323 329 331 331 331 330
302 303 304 305 305 304 302 302 303 307 307 308 307 307 306 306 306 305 306 305 305 305 307 306 308 309 309 309 305 310 322 323 325 323 327 327 327 324 319 320 327 330 331 331 332
302 302 302 301 301 302 304 305 303 303 307 304 304 305 305 306 306 306 306 306 306 306 306 308 306 306 307 308 307 309 318 321 321 323 327 328 327 325 322 320 325 329 331 330 331
303 303 302 303 303 305 305 305 304 304 305 303 305 304 305 305 306 306 306 307 309 310 308 309 307 304 305 307 307 309 313 317 316 321 328 327 328 326 324 323 319 327 330 330 330
303 302 301 301 304 306 305 306 304 303 301 303 303 304 305 306 308 308 306 307 310 311 310 310 307 306 306 307 308 308 312 311 315 315 326 327 329 328 325 324 322 319 326 330 330
303 302 302 300 305 305 306 305 303 303 308 306 305 307 308 308 311 307 306 308 309 310 310 310 307 308 307 308 308 309 309 310 315 317 329 326 329 328 327 325 324 323 320 328 330
302 303 302 301 303 305 305 304 303 304 301 300 306 306 307 307 309 310 308 308 310 311 310 309 309 308 310 307 307 308 309 311 311 315 326 329 330 325 325 326 325 323 322 322 329
302 302 302 301 302 304 304 303 305 305 298 299 304 305 305 307 310 308 309 308 308 309 309 309 306 308 308 308 307 311 314 316 318 318 327 327 328 324 324 325 324 323 321 320 326
301 301 301 300 301 304 303 305 305 305 297 300 303 304 305 309 309 310 311 310 312 309 310 310 308 309 309 309 309 311 315 315 318 327 330 328 330 325 323 321 322 322 322 321 324
301 300 300 302 303 303 303 299 298 289 293 301 304 304 309 311 312 311 310 314 311 309 313 311 313 310 309 310 311 312 313 317 330 327 329 324 330 326 322 321 320 319 321 321 323
300 300 303 305 304 304 298 291 294 295 299 306 304 304 306 310 313 314 311 313 308 306 313 314 307 309 309 308 311 316 315 313 320 316 326 327 326 323 322 320 314 319 318 319 321
300 301 302 302 301 301 293 299 294 299 305 306 305 303 307 308 311 313 315 314 313 307 305 310 315 309 310 311 315 315 315 317 320 321 325 324 327 325 309 306 305 305 312 317 319
301 295 302 302 303 294 292 288 296 302 304 306 305 307 306 308 311 314 314 313 312 314 314 307 314 314 312 314 320 319 319 322 324 323 326 327 321 304 303 304 304 304 305 310 316
296 290 300 302 293 290 287 293 301 304 304 305 306 307 308 308 310 313 313 312 310 312 315 311 313 315 313 307 308 314 320 322 320 322 319 318 309 303 303 303 302 305 306 306 307
288 290 299 299 291 294 298 298 300 303 304 304 306 307 307 309 310 312 311 310 310 311 313 312 314 315 316 314 310 314 315 320 320 318 321 323 313 307 305 304 304 305 306 306 307
289 291 289 291 290 291 290 293 299 301 304 304 306 305 307 307 307 310 308 308 308 309 310 311 312 314 320 317 316 316 314 315 320 324 322 324 310 314 314 307 305 304 305 305 306
287 285 284 289 290 295 298 299 302 298 301 302 305 305 306 307 305 306 306 307 308 309 309 311 312 312 312 313 314 316 315 314 317 318 324 321 319 316 315 316 305 303 303 303 304
289 289 291 284 294 298 297 294 301 302 302 302 304 304 302 304 305 306 307 306 308 309 310 309 312 312 311 311 313 315 316 313 313 313 315 316 316 313 312 311 307 304 303 303 302
293 292 291 293 294 294 290 298 300 299 302 302 303 303 302 302 301 301 302 305 306 309 311 310 311 311 312 308 311 312 309 315 316 315 316 319 316 309 313 307 303 303 302 301 301
Wind_Speed
9 10 11 13 13 13 13 14 14 15 15 14 14 13 13 14 17 17 9 13 7 8 12 11 7 7 2 2 2 4 1 5 8 7 3 4 3 2 2 7 3 8 6 6 36
8 10 12 13 13 13 14 13 13 12 13 13 14 12 13 14 18 15 18 18 17 13 7 4 3 5 3 4 3 4 4 8 5 5 5 1 2 5 3 4 2 3 3 28 35
10 11 14 13 12 12 12 13 11 11 12 12 13 11 12 11 5 5 10 16 12 10 9 3 7 3 11 3 5 5 7 3 5 3 2 2 3 6 2 2 6 12 14 22 29
14 14 15 13 12 11 11 12 10 10 11 12 11 10 10 4 4 4 3 13 12 3 7 1 2 3 5 13 8 6 9 5 5 2 2 1 4 7 3 4 5 8 21 22 21
16 16 14 14 13 12 12 12 11 11 11 10 10 8 5 1 9 11 13 17 11 1 10 4 2 2 6 5 9 16 9 10 6 1 1 0 2 4 8 9 2 8 21 24 22
16 18 19 19 17 16 15 13 13 12 11 10 8 7 4 9 10 11 10 10 4 2 1 8 6 4 6 7 9 9 18 10 12 8 3 3 4 5 5 1 6 13 19 20 22
18 18 19 18 16 15 15 14 13 12 10 9 8 8 7 16 6 8 7 5 7 1 2 5 14 2 2 5 8 11 12 15 13 13 6 6 10 9 12 6 8 9 14 17 18
17 16 16 14 10 10 12 12 12 11 10 9 8 7 8 10 14 20 23 27 23 19 5 7 6 2 2 5 7 8 10 18 24 12 8 9 25 9 5 9 10 10 8 12 16
14 13 12 10 4 4 8 11 11 10 10 8 7 6 8 6 6 13 15 12 5 9 11 12 4 4 2 3 5 6 10 26 11 24 6 17 8 10 8 9 9 10 12 12 12
11 11 10 9 6 5 7 11 9 5 3 4 3 3 5 4 4 2 1 8 3 2 3 4 4 4 5 8 17 20 13 12 24 12 24 17 21 7 4 7 10 11 12 12 14
9 10 10 9 8 8 9 2 4 3 2 7 7 5 1 6 5 5 6 3 3 4 6 6 6 16 24 19 17 14 10 15 12 15 15 26 19 17 7 4 8 7 12 13 16
7 8 10 10 10 6 6 3 3 2 8 13 17 12 20 12 8 8 12 8 9 8 10 6 19 23 15 13 14 17 23 19 14 21 17 16 22 26 17 7 7 10 12 15 15
6 8 10 15 4 2 4 2 3 4 3 5 4 3 3 7 6 8 14 8 7 13 17 17 10 16 15 13 14 19 20 27 15 22 12 5 14 17 20 18 12 9 10 16 16
6 8 11 15 1 4 1 1 8 3 2 4 3 3 4 4 5 7 21 8 8 15 12 12 14 12 18 21 17 18 18 23 19 11 17 15 10 18 20 21 22 19 12 13 15
7 8 11 11 6 2 2 6 5 1 4 3 3 2 2 4 7 2 6 7 12 8 7 9 9 24 16 23 20 18 17 20 24 21 14 14 9 5 17 20 26 22 20 16 17
7 9 10 5 6 2 3 8 1 2 5 6 3 3 8 4 3 2 5 4 1 7 8 12 4 14 21 10 17 4 9 11 11 15 10 8 12 6 11 19 23 22 17 17 17
7 8 10 9 1 2 6 1 2 2 4 8 4 6 10 4 2 3 5 8 5 4 9 8 18 3 4 9 6 14 7 4 8 9 4 16 10 10 1 10 19 18 19 20 18
8 12 6 2 1 2 2 4 2 3 5 4 6 13 4 5 4 4 3 5 12 7 2 9 5 18 8 18 13 18 18 9 9 5 4 8 9 5 11 15 8 6 12 17 20
9 3 3 3 1 1 4 3 6 5 4 6 11 3 5 4 3 5 3 3 3 11 7 6 7 5 9 13 15 11 15 20 6 2 4 4 2 7 2 3 8 8 8 12 17
4 0 2 1 1 4 4 4 4 5 1 0 4 2 4 9 7 6 4 1 7 10 8 4 3 2 9 9 15 11 8 7 8 4 2 3 1 3 10 10 8 8 7 10 14
2 3 2 2 5 4 3 6 5 5 3 2 2 4 5 5 4 5 5 6 11 6 6 2 3 1 4 4 4 5 8 10 1 1 3 4 2 0 7 7 8 9 8 8 8
4 2 4 7 3 2 1 3 4 4 2 3 3 4 3 4 5 3 5 3 14 13 9 2 2 3 2 3 2 4 3 6 2 3 2 2 0 4 5 6 5 7 7 6 7
3 1 1 3 2 2 3 4 3 3 2 1 3 3 3 4 5 4 6 6 10 11 11 6 4 0 1 3 3 2 1 3 3 2 4 3 3 4 5 7 7 7 7 7 7
3 1 3 3 0 5 3 3 3 2 4 2 4 5 4 2 2 5 9 5 10 10 16 7 2 3 2 2 1 3 3 1 2 2 4 2 7 2 8 11 11 11 8 7 8
3 3 3 2 2 3 3 3 1 3 2 3 3 3 5 3 4 4 6 10 8 11 8 6 5 4 5 5 2 3 2 3 3 2 2 6 4 2 6 8 7 7 9 12 13
4 4 2 1 1 3 1 3 3 2 1 3 4 6 2 3 3 5 7 4 4 8 8 7 4 5 6 8 7 7 9 3 2 2 2 7 3 4 4 4 10 10 10 12 12
4 3 3 1 1 3 4 5 4 2 2 1 4 5 3 3 5 10 8 9 6 7 5 7 5 4 3 5 4 5 8 6 4 6 2 3 3 5 5 9 10 10 10 10 10
Wind_Direction
325 324 324 322 323 319 315 315 316 320 322 320 320 320 321 319 312 305 265 258 247 251 279 292 293 235 261 235 223 131 209 203 200 174 229 349 274 43 -0 128 154 169 161 188 159
319 319 315 309 308 307 307 306 311 314 315 316 318 317 315 316 316 292 305 277 251 255 267 315 320 217 226 205 203 191 187 220 205 194 191 289 347 326 150 116 187 140 55 137 152
310 316 312 307 302 300 297 300 305 309 308 312 311 309 313 324 321 247 35 23 240 238 245 294 318 319 218 182 187 190 225 215 251 186 142 188 329 306 96 230 214 192 149 151 159
313 311 307 301 294 290 288 295 299 296 299 299 303 306 312 341 292 193 68 29 64 228 229 301 31 285 259 211 220 242 214 203 268 164 140 152 329 318 202 212 327 173 162 156 167
312 308 304 298 291 283 279 283 285 289 292 293 299 302 319 331 253 242 268 305 299 359 196 184 131 211 241 294 258 234 249 210 239 203 201 83 221 255 275 275 139 148 164 173 177
316 311 303 295 284 278 275 278 279 282 283 286 287 281 258 257 264 293 292 303 328 208 184 191 194 166 302 262 282 314 226 238 225 216 230 198 240 147 265 92 146 156 182 181 180
319 319 314 303 286 274 271 273 275 278 280 280 278 270 241 243 247 265 291 322 25 245 194 236 236 163 131 277 328 306 247 218 217 213 216 173 265 195 242 150 169 199 189 189 190
328 332 331 322 292 272 270 270 273 277 277 273 268 272 259 266 275 266 261 266 268 263 277 286 262 248 223 331 326 318 255 219 216 182 208 157 240 191 195 166 198 190 198 200 198
338 345 351 353 341 288 278 279 278 277 273 263 255 196 270 298 247 269 256 244 286 259 243 251 335 202 222 168 288 230 262 222 232 207 192 203 221 202 225 179 209 201 193 203 203
346 358 0 2 1 339 310 295 292 265 254 232 185 247 251 237 230 234 211 221 199 103 116 151 195 222 189 199 214 222 239 252 229 216 213 224 235 226 151 181 208 201 202 200 203
348 357 356 356 355 345 351 45 21 20 200 202 201 232 319 213 235 218 247 172 143 175 176 192 203 217 215 213 261 269 246 258 283 224 201 225 224 229 216 194 220 203 202 206 212
353 355 353 349 331 333 1 55 127 267 293 243 251 260 270 279 280 247 215 214 180 201 182 193 228 224 226 220 226 248 247 259 305 258 197 215 225 231 220 222 187 214 202 211 221
325 345 345 344 318 3 359 114 2 356 294 289 210 213 230 174 233 224 181 193 207 202 194 208 227 215 224 225 222 234 237 241 259 297 216 180 237 230 229 228 228 228 216 209 206
306 334 340 347 330 348 64 357 338 349 301 275 261 240 197 203 253 212 186 188 202 215 202 233 232 238 210 218 209 242 231 230 249 271 214 193 243 219 221 226 236 233 226 211 206
297 315 329 340 308 345 79 334 330 174 343 253 253 160 241 204 312 175 169 180 218 178 180 215 195 206 226 218 195 241 220 208 233 258 258 192 226 236 190 218 234 233 229 217 203
297 307 316 317 301 251 345 321 137 52 263 324 285 313 331 250 235 334 196 241 289 218 234 238 221 200 213 215 209 288 221 209 253 253 225 184 203 215 210 206 229 228 216 217 204
291 296 295 296 331 124 345 75 342 217 339 307 316 336 324 266 291 238 200 192 205 205 210 199 227 190 156 197 198 216 181 235 251 220 186 168 192 234 183 200 216 216 210 211 201
294 302 281 225 49 309 39 52 108 233 263 308 309 312 289 342 230 214 274 241 223 234 274 208 203 198 186 210 208 208 198 198 221 175 127 154 226 232 220 234 233 213 224 211 210
308 277 155 108 188 257 79 62 208 211 233 313 319 339 323 1 327 322 257 262 245 190 224 216 233 161 185 201 220 162 199 218 286 275 107 185 250 298 190 325 351 284 211 216 212
303 308 97 85 49 122 79 244 231 215 295 5 316 25 320 334 318 319 323 342 332 196 204 274 247 157 198 217 213 189 123 194 237 138 176 61 94 290 348 330 326 324 298 251 213
185 58 123 78 125 55 180 225 252 247 193 220 287 285 297 308 301 296 319 298 351 293 288 276 259 335 244 23 127 136 186 220 75 97 138 136 149 281 295 306 306 313 304 271 225
112 46 22 149 54 105 173 209 269 279 134 229 236 254 256 302 286 287 309 293 332 329 341 16 355 49 57 105 356 342 211 223 173 202 10 125 180 15 332 331 342 333 330 10 42
116 188 43 183 147 213 265 286 264 322 269 246 261 237 260 299 299 323 315 303 335 346 350 344 11 39 166 137 104 157 210 345 87 84 195 125 155 357 8 21 10 5 2 19 30
102 73 331 50 352 141 161 269 297 294 273 312 291 322 317 272 274 311 317 317 321 348 345 341 66 352 51 64 90 161 153 1 97 137 128 79 151 348 28 25 8 18 9 21 35
46 236 199 218 300 185 158 192 284 328 282 338 326 21 333 311 323 320 329 318 321 349 354 10 360 5 26 23 23 59 98 128 63 82 170 141 141 334 26 20 356 9 27 33 36
134 141 122 141 195 120 321 244 193 285 238 305 323 331 25 333 331 309 335 325 324 327 349 350 352 353 5 9 25 47 29 94 37 72 64 108 93 341 309 27 33 21 24 30 25
147 112 105 197 150 109 220 195 206 173 252 337 323 306 298 243 251 267 269 283 292 323 331 344 334 7 345 346 351 34 355 357 76 33 350 76 86 38 58 62 35 8 16 17 17